CHZ2256 LCLK-LLBG

Flight info

Callsign CHZ2256
Flight time 0h 50m
Altitude 25000
Route EMEDA1D EMEDA DCT TUZIB L189 ZUKKO NINET1
Aircraft B77L/H-SDE1E2E3FGHIJ2J3J4J5M1RWXY/LB1D1

Departure

Time 2026-05-07 13:41
Airport Larnaca International Airport (LCLK)

Arrival

Time 2026-05-07 14:31
Airport Ben Gurion International Airport (LLBG)
Time Latitude Longitude Altitude Speed Heading
2026-05-07 13:16 34.88495 33.63194 20 ft 0 kts 225°
2026-05-07 13:31 34.88497 33.63195 20 ft 1 kts 227°
2026-05-07 13:32 34.88497 33.63187 20 ft 3 kts 262°
2026-05-07 13:32 34.88499 33.63195 20 ft 3 kts 232°
2026-05-07 13:32 34.88511 33.63209 24 ft 3 kts 219°
2026-05-07 13:32 34.88526 33.63224 23 ft 3 kts 215°
2026-05-07 13:33 34.88542 33.63236 24 ft 3 kts 196°
2026-05-07 13:33 34.88554 33.63239 23 ft 2 kts 159°
2026-05-07 13:33 34.88557 33.63238 22 ft 0 kts 154°
2026-05-07 13:37 34.88537 33.63249 21 ft 8 kts 154°
2026-05-07 13:37 34.88493 33.63290 20 ft 8 kts 141°
2026-05-07 13:38 34.88458 33.63353 22 ft 11 kts 113°
2026-05-07 13:38 34.88410 33.63422 20 ft 11 kts 134°
2026-05-07 13:38 34.88358 33.63487 20 ft 11 kts 135°
2026-05-07 13:38 34.88291 33.63501 20 ft 11 kts 210°
2026-05-07 13:39 34.88234 33.63435 19 ft 11 kts 224°
2026-05-07 13:39 34.88232 33.63432 19 ft 0 kts 224°
2026-05-07 13:40 34.88214 33.63411 21 ft 24 kts 224°
2026-05-07 13:40 34.87818 33.62932 27 ft 136 kts 224°
2026-05-07 13:40 34.86948 33.61865 425 ft 192 kts 223°
2026-05-07 13:41 34.86022 33.60760 1787 ft 184 kts 225°
2026-05-07 13:41 34.85053 33.59603 2161 ft 208 kts 226°
2026-05-07 13:41 34.83971 33.58265 2430 ft 235 kts 226°
2026-05-07 13:41 34.82772 33.56788 2922 ft 250 kts 226°
2026-05-07 13:42 34.81325 33.55572 3507 ft 261 kts 199°
2026-05-07 13:42 34.79511 33.55482 4227 ft 266 kts 165°
2026-05-07 13:42 34.77902 33.56554 4967 ft 266 kts 138°
2026-05-07 13:42 34.76506 33.58075 5653 ft 272 kts 135°
2026-05-07 13:43 34.75116 33.59647 6465 ft 274 kts 135°
2026-05-07 13:43 34.73723 33.61232 7241 ft 275 kts 135°
2026-05-07 13:43 34.72319 33.62823 8010 ft 277 kts 135°
2026-05-07 13:43 34.70902 33.64424 8778 ft 279 kts 135°
2026-05-07 13:44 34.69473 33.66031 9534 ft 281 kts 136°
2026-05-07 13:44 34.68029 33.67647 10268 ft 284 kts 136°
2026-05-07 13:44 34.66567 33.69282 10904 ft 288 kts 136°
2026-05-07 13:44 34.65076 33.70944 11616 ft 293 kts 136°
2026-05-07 13:45 34.63566 33.72625 12366 ft 297 kts 136°
2026-05-07 13:45 34.61957 33.74206 13079 ft 301 kts 150°
2026-05-07 13:45 34.59998 33.75175 13774 ft 307 kts 161°
2026-05-07 13:45 34.57966 33.76021 14460 ft 311 kts 161°
2026-05-07 13:46 34.55909 33.76893 15157 ft 315 kts 161°
2026-05-07 13:46 34.53830 33.77798 15810 ft 320 kts 161°
2026-05-07 13:46 34.51718 33.78732 16479 ft 325 kts 161°
2026-05-07 13:46 34.49576 33.79684 17139 ft 330 kts 161°
2026-05-07 13:47 34.47366 33.80486 17791 ft 333 kts 173°
2026-05-07 13:47 34.45056 33.80758 18442 ft 335 kts 180°
2026-05-07 13:47 34.42712 33.80897 19027 ft 339 kts 181°
2026-05-07 13:47 34.40347 33.81021 19647 ft 342 kts 181°
2026-05-07 13:48 34.37961 33.81159 20264 ft 345 kts 181°
2026-05-07 13:48 34.35556 33.81314 20864 ft 348 kts 181°
2026-05-07 13:48 34.33124 33.81484 21466 ft 352 kts 181°
2026-05-07 13:48 34.30668 33.81664 22066 ft 355 kts 181°
2026-05-07 13:49 34.28191 33.81851 22671 ft 359 kts 181°
2026-05-07 13:49 34.25694 33.82043 23274 ft 362 kts 181°
2026-05-07 13:49 34.23158 33.82239 23830 ft 366 kts 181°
2026-05-07 13:49 34.20611 33.82436 24355 ft 369 kts 181°
2026-05-07 13:50 34.18050 33.82635 24884 ft 370 kts 181°
2026-05-07 13:50 34.15470 33.82835 25116 ft 374 kts 181°
2026-05-07 13:50 34.12859 33.83037 25103 ft 376 kts 181°
2026-05-07 13:50 34.10253 33.83240 25102 ft 373 kts 181°
2026-05-07 13:51 34.07672 33.83441 25095 ft 371 kts 181°
2026-05-07 13:51 34.05095 33.83639 25094 ft 371 kts 181°
2026-05-07 13:51 34.02523 33.83837 25101 ft 370 kts 181°
2026-05-07 13:51 33.99948 33.84036 25101 ft 370 kts 181°
2026-05-07 13:52 33.98248 33.84169 25100 ft 370 kts 181°
2026-05-07 13:52 33.95674 33.84369 25099 ft 371 kts 181°
2026-05-07 13:52 33.93098 33.84569 25102 ft 371 kts 181°
2026-05-07 13:52 33.90524 33.84769 25100 ft 371 kts 181°
2026-05-07 13:53 33.87945 33.84969 25095 ft 372 kts 181°
2026-05-07 13:53 33.85360 33.85170 25103 ft 372 kts 181°
2026-05-07 13:53 33.81938 33.85435 25097 ft 373 kts 181°
2026-05-07 13:53 33.79347 33.85636 25097 ft 373 kts 181°
2026-05-07 13:54 33.76758 33.85836 25096 ft 373 kts 181°
2026-05-07 13:54 33.75007 33.85972 25092 ft 373 kts 181°
2026-05-07 13:54 33.72410 33.86173 25089 ft 374 kts 181°
2026-05-07 13:54 33.69819 33.86374 25101 ft 374 kts 181°
2026-05-07 13:55 33.67223 33.86575 25094 ft 374 kts 181°
2026-05-07 13:55 33.64628 33.86775 25093 ft 373 kts 181°
2026-05-07 13:55 33.62035 33.86976 25093 ft 373 kts 181°
2026-05-07 13:55 33.59447 33.87176 25092 ft 373 kts 181°
2026-05-07 13:56 33.56852 33.87376 25092 ft 373 kts 181°
2026-05-07 13:56 33.54265 33.87576 25086 ft 373 kts 181°
2026-05-07 13:56 33.51710 33.87773 25093 ft 373 kts 181°
2026-05-07 13:56 33.49121 33.87972 25092 ft 372 kts 181°
2026-05-07 13:57 33.46536 33.88171 25098 ft 372 kts 181°
2026-05-07 13:57 33.43953 33.88370 25105 ft 372 kts 181°
2026-05-07 13:57 33.41365 33.88569 25100 ft 372 kts 181°
2026-05-07 13:57 33.38782 33.88767 25084 ft 372 kts 181°
2026-05-07 13:58 33.36198 33.88966 25098 ft 372 kts 181°
2026-05-07 13:58 33.33612 33.89164 25082 ft 372 kts 181°
2026-05-07 13:58 33.31030 33.89362 25100 ft 372 kts 181°
2026-05-07 13:58 33.28444 33.89561 25097 ft 372 kts 181°
2026-05-07 13:59 33.25861 33.89759 25094 ft 372 kts 181°
2026-05-07 13:59 33.23273 33.89957 25022 ft 374 kts 181°
2026-05-07 13:59 33.20687 33.90155 24905 ft 367 kts 181°
2026-05-07 13:59 33.18181 33.90349 24828 ft 354 kts 181°
2026-05-07 14:00 33.15740 33.90533 24448 ft 352 kts 181°
2026-05-07 14:00 33.13308 33.90712 24062 ft 350 kts 181°
2026-05-07 14:00 33.10861 33.90888 23491 ft 354 kts 181°
2026-05-07 14:00 33.08408 33.91067 23045 ft 351 kts 181°
2026-05-07 14:01 33.05962 33.91246 22486 ft 353 kts 180°
2026-05-07 14:01 33.03507 33.91426 21940 ft 354 kts 180°
2026-05-07 14:01 33.01057 33.91607 21520 ft 352 kts 180°
2026-05-07 14:01 32.98624 33.91787 21132 ft 348 kts 180°
2026-05-07 14:02 32.96222 33.91965 20738 ft 345 kts 180°
2026-05-07 14:02 32.93865 33.92139 20336 ft 343 kts 180°
2026-05-07 14:02 32.91494 33.92314 19954 ft 339 kts 180°
2026-05-07 14:02 32.89144 33.92487 19558 ft 337 kts 180°
2026-05-07 14:03 32.86819 33.92658 19203 ft 333 kts 179°
2026-05-07 14:03 32.84511 33.92827 18794 ft 331 kts 179°
2026-05-07 14:03 32.82218 33.92996 18425 ft 329 kts 179°
2026-05-07 14:03 32.79948 33.93162 18019 ft 325 kts 179°
2026-05-07 14:04 32.77703 33.93327 17657 ft 321 kts 179°
2026-05-07 14:04 32.75492 33.93490 17272 ft 317 kts 179°
2026-05-07 14:04 32.73288 33.93650 16861 ft 320 kts 179°
2026-05-07 14:04 32.71039 33.93813 16895 ft 327 kts 179°
2026-05-07 14:05 32.68755 33.93980 16787 ft 325 kts 179°
2026-05-07 14:05 32.66557 33.94144 16418 ft 306 kts 179°
2026-05-07 14:05 32.64466 33.94299 16214 ft 300 kts 179°
2026-05-07 14:05 32.62398 33.94448 16198 ft 293 kts 179°
2026-05-07 14:06 32.60409 33.94594 15987 ft 279 kts 179°
2026-05-07 14:06 32.58574 33.94732 15866 ft 257 kts 180°
2026-05-07 14:06 32.56878 33.94917 15658 ft 236 kts 168°
2026-05-07 14:06 32.55444 33.95871 14816 ft 250 kts 135°
2026-05-07 14:07 32.54215 33.97444 13942 ft 270 kts 137°
2026-05-07 14:07 32.52863 33.99059 13331 ft 277 kts 136°
2026-05-07 14:07 32.51546 34.00689 13004 ft 272 kts 135°
2026-05-07 14:07 32.50250 34.02306 12646 ft 268 kts 135°
2026-05-07 14:08 32.48988 34.03885 12378 ft 261 kts 136°
2026-05-07 14:08 32.47735 34.05450 11907 ft 263 kts 135°
2026-05-07 14:08 32.46484 34.07010 11619 ft 257 kts 135°
2026-05-07 14:08 32.45243 34.08554 11105 ft 262 kts 135°
2026-05-07 14:09 32.43997 34.10103 10795 ft 257 kts 135°
2026-05-07 14:09 32.42823 34.11639 10680 ft 247 kts 130°
2026-05-07 14:09 32.41826 34.13257 10558 ft 241 kts 126°
2026-05-07 14:09 32.40892 34.14895 10469 ft 241 kts 125°
2026-05-07 14:10 32.39942 34.16572 10383 ft 252 kts 125°
2026-05-07 14:10 32.38917 34.18377 10287 ft 279 kts 125°
2026-05-07 14:10 32.37789 34.20360 10168 ft 294 kts 125°
2026-05-07 14:10 32.36647 34.22366 10081 ft 295 kts 125°
2026-05-07 14:11 32.35492 34.24389 9807 ft 297 kts 125°
2026-05-07 14:11 32.34335 34.26409 9547 ft 294 kts 125°
2026-05-07 14:11 32.33196 34.28397 9158 ft 291 kts 125°
2026-05-07 14:11 32.32071 34.30356 8820 ft 284 kts 125°
2026-05-07 14:12 32.30978 34.32253 8580 ft 277 kts 125°
2026-05-07 14:12 32.29903 34.34118 8354 ft 273 kts 124°
2026-05-07 14:12 32.28829 34.35981 8124 ft 277 kts 124°
2026-05-07 14:12 32.27738 34.37873 7921 ft 280 kts 124°
2026-05-07 14:13 32.27054 34.39060 7820 ft 280 kts 124°
2026-05-07 14:13 32.25942 34.40988 7655 ft 281 kts 124°
2026-05-07 14:13 32.24841 34.42895 7504 ft 280 kts 124°
2026-05-07 14:13 32.23749 34.44785 7263 ft 281 kts 124°
2026-05-07 14:14 32.22674 34.46644 6752 ft 275 kts 124°
2026-05-07 14:14 32.21634 34.48436 6600 ft 251 kts 124°
2026-05-07 14:14 32.20647 34.50137 6611 ft 261 kts 124°
2026-05-07 14:14 32.19571 34.51990 6614 ft 280 kts 124°
2026-05-07 14:15 32.18470 34.53885 6603 ft 278 kts 124°
2026-05-07 14:15 32.17404 34.55719 6370 ft 265 kts 124°
2026-05-07 14:15 32.16383 34.57483 6208 ft 255 kts 123°
2026-05-07 14:15 32.15455 34.59247 6083 ft 253 kts 121°
2026-05-07 14:16 32.14546 34.61044 5980 ft 255 kts 121°
2026-05-07 14:16 32.13637 34.62846 5881 ft 258 kts 121°
2026-05-07 14:16 32.12942 34.64219 5804 ft 266 kts 121°
2026-05-07 14:16 32.12225 34.65633 5699 ft 265 kts 121°
2026-05-07 14:17 32.11288 34.67474 5569 ft 259 kts 121°
2026-05-07 14:17 32.10368 34.69279 5455 ft 254 kts 121°
2026-05-07 14:17 32.09461 34.71053 5344 ft 251 kts 121°
2026-05-07 14:17 32.08559 34.72817 5236 ft 251 kts 121°
2026-05-07 14:18 32.07657 34.74578 5128 ft 249 kts 121°
2026-05-07 14:18 32.06761 34.76317 5016 ft 247 kts 123°
2026-05-07 14:18 32.05532 34.77704 4940 ft 247 kts 151°
2026-05-07 14:18 32.03991 34.78623 4922 ft 252 kts 153°
2026-05-07 14:19 32.02437 34.79561 4858 ft 254 kts 153°
2026-05-07 14:19 32.00871 34.80516 4801 ft 253 kts 153°
2026-05-07 14:19 31.99317 34.81469 4744 ft 250 kts 152°
2026-05-07 14:19 31.97968 34.82715 4675 ft 246 kts 134°
2026-05-07 14:20 31.96831 34.84244 4647 ft 249 kts 130°
2026-05-07 14:20 31.95717 34.85817 4602 ft 252 kts 130°
2026-05-07 14:20 31.94583 34.87400 4554 ft 252 kts 130°
2026-05-07 14:20 31.93462 34.88938 4480 ft 241 kts 130°
2026-05-07 14:21 31.92398 34.90380 4418 ft 225 kts 131°
2026-05-07 14:21 31.91406 34.91717 4337 ft 209 kts 130°
2026-05-07 14:21 31.90478 34.92962 4324 ft 202 kts 130°
2026-05-07 14:21 31.89543 34.94218 4322 ft 206 kts 130°
2026-05-07 14:22 31.88715 34.95575 4296 ft 205 kts 120°
2026-05-07 14:22 31.87997 34.97030 4230 ft 205 kts 118°
2026-05-07 14:22 31.87286 34.98476 4204 ft 204 kts 118°
2026-05-07 14:22 31.86568 34.99925 4149 ft 206 kts 119°
2026-05-07 14:23 31.85834 35.01383 4126 ft 206 kts 119°
2026-05-07 14:23 31.85102 35.02831 4079 ft 206 kts 119°
2026-05-07 14:23 31.84369 35.04280 4026 ft 205 kts 118°
2026-05-07 14:23 31.83657 35.05739 3978 ft 206 kts 111°
2026-05-07 14:24 31.83528 35.07360 3952 ft 199 kts 71°
2026-05-07 14:24 31.84065 35.08829 3922 ft 199 kts 58°
2026-05-07 14:24 31.84799 35.10168 3828 ft 192 kts 37°
2026-05-07 14:24 31.85940 35.10812 3821 ft 181 kts
2026-05-07 14:25 31.87181 35.10698 3723 ft 177 kts 337°
2026-05-07 14:25 31.88223 35.10028 3722 ft 170 kts 331°
2026-05-07 14:25 31.89268 35.09371 3696 ft 170 kts 332°
2026-05-07 14:25 31.90142 35.08420 3558 ft 174 kts 303°
2026-05-07 14:26 31.90742 35.07211 3474 ft 169 kts 304°
2026-05-07 14:26 31.91367 35.06034 3369 ft 169 kts 305°
2026-05-07 14:26 31.91963 35.04897 3240 ft 155 kts 306°
2026-05-07 14:26 31.92501 35.03861 3060 ft 141 kts 306°
2026-05-07 14:27 31.92986 35.02925 2993 ft 140 kts 305°
2026-05-07 14:27 31.93528 35.01894 2772 ft 152 kts 306°
2026-05-07 14:27 31.94069 35.00851 2555 ft 145 kts 306°
2026-05-07 14:27 31.94568 34.99887 2328 ft 131 kts 306°
2026-05-07 14:28 31.95049 34.98960 2170 ft 139 kts 307°
2026-05-07 14:28 31.95558 34.97989 1981 ft 141 kts 307°
2026-05-07 14:28 31.96065 34.97008 1751 ft 139 kts 306°
2026-05-07 14:28 31.96566 34.96036 1564 ft 138 kts 307°
2026-05-07 14:29 31.97067 34.95072 1373 ft 138 kts 307°
2026-05-07 14:29 31.97564 34.94115 1175 ft 137 kts 307°
2026-05-07 14:29 31.98061 34.93161 993 ft 137 kts 306°
2026-05-07 14:29 31.98565 34.92193 798 ft 140 kts 306°
2026-05-07 14:30 31.99076 34.91206 638 ft 143 kts 305°
2026-05-07 14:30 31.99578 34.90234 364 ft 134 kts 304°
2026-05-07 14:30 32.00044 34.89344 157 ft 124 kts 304°
2026-05-07 14:30 32.00414 34.88632 122 ft 100 kts 302°
2026-05-07 14:31 32.00678 34.88115 121 ft 48 kts 300°
2026-05-07 14:31 32.00763 34.87954 122 ft 11 kts 300°
2026-05-07 14:31 32.00808 34.87860 121 ft 14 kts 303°
2026-05-07 14:31 32.00864 34.87753 122 ft 21 kts 300°
2026-05-07 14:32 32.00960 34.87573 123 ft 27 kts 303°
2026-05-07 14:32 32.01041 34.87377 122 ft 27 kts 287°
2026-05-07 14:32 32.01061 34.87166 124 ft 12 kts 271°
2026-05-07 14:32 32.01061 34.87162 124 ft 0 kts 271°
2026-05-07 14:34 32.01062 34.87152 124 ft 7 kts 271°
2026-05-07 14:34 32.01055 34.87080 120 ft 9 kts 241°
2026-05-07 14:34 32.00998 34.87080 123 ft 10 kts 135°
2026-05-07 14:34 32.00959 34.87148 121 ft 10 kts 120°
2026-05-07 14:35 32.00920 34.87217 123 ft 10 kts 122°
2026-05-07 14:35 32.00882 34.87292 120 ft 12 kts 122°
2026-05-07 14:35 32.00824 34.87406 119 ft 17 kts 121°
2026-05-07 14:35 32.00762 34.87525 121 ft 17 kts 122°
2026-05-07 14:36 32.00699 34.87645 122 ft 17 kts 121°
2026-05-07 14:36 32.00637 34.87763 120 ft 17 kts 121°
2026-05-07 14:36 32.00576 34.87883 123 ft 17 kts 121°
2026-05-07 14:36 32.00515 34.88003 120 ft 17 kts 121°
2026-05-07 14:37 32.00453 34.88122 120 ft 17 kts 122°
2026-05-07 14:37 32.00326 34.88358 120 ft 17 kts 122°
2026-05-07 14:37 32.00265 34.88478 120 ft 17 kts 121°
2026-05-07 14:38 32.00203 34.88598 123 ft 17 kts 121°
2026-05-07 14:38 32.00141 34.88718 121 ft 17 kts 121°
2026-05-07 14:38 32.00079 34.88838 120 ft 17 kts 121°
2026-05-07 14:38 32.00017 34.88958 120 ft 17 kts 121°
2026-05-07 14:39 31.99952 34.89076 122 ft 18 kts 122°
2026-05-07 14:39 31.99886 34.89198 121 ft 18 kts 123°
2026-05-07 14:39 31.99820 34.89319 119 ft 18 kts 124°
2026-05-07 14:39 31.99737 34.89395 120 ft 0 kts 116°
2026-05-07 14:40 31.99733 34.89415 119 ft 3 kts 106°
2026-05-07 14:40 31.99722 34.89515 121 ft 19 kts 107°
2026-05-07 14:40 31.99676 34.89662 120 ft 19 kts 112°
2026-05-07 14:40 31.99626 34.89808 121 ft 19 kts 112°
2026-05-07 14:41 31.99545 34.89925 122 ft 19 kts 155°
2026-05-07 14:41 31.99446 34.89969 122 ft 2 kts 133°
2026-05-07 14:41 31.99437 34.89985 121 ft 5 kts 121°
2026-05-07 14:41 31.99427 34.90027 120 ft 6 kts 97°
2026-05-07 14:42 31.99426 34.90067 124 ft 0 kts 92°